User: anonymous
Location: Pine Mountain Observatory
(43.7910°N, 120.9377°W)
Time: 01:17:20
(UTC-07:00)
Language:

APEX - Orbit

View from above orbital plane
View from above orbital plane
View from above satellite
View from above satellite

Ground track
Ground track

The orbit data is extracted from the following two-line orbital elements,

1 23191U 94046A   14208.79682119  .00006642  00000-0  26815-3 0  9552
2 23191 069.9229 095.4138 0746662 244.4979 185.9899 14.03949450966239
Epoch (UTC): 27 July 2014 19:07:25
Eccentricity: 0.0746662
inclination: 69.9229°
perigee height: 338 km
apogee height: 1422 km
right ascension of ascending node: 95.4138°
argument of perigee: 244.4979°
revolutions per day: 14.03949450
mean anomaly at epoch: 185.9899°
orbit number at epoch: 96623

The dashed part of the orbit path shows where the satellite is in the earth's shadow,  

DLR